Location: Kelowna
(49.8880°N, 119.4960°W)
Time: 01:55:22
(UTC-07:00)

CAS-4A - Pass Details

Date: 21 April 2024
Orbit: 475 x 491 km, 43.0° (Epoch: 25 May)

Event Time Altitude Azimuth Distance (km) Brightness Sun altitude
Exits shadow 03:19:14 15° 134° (SE) 1,384 ? -20.6°
Drops below altitude 10° 03:20:30 10° 116° (ESE) 1,663 ? -20.5°
Enters shadow 04:19:05 -67° 268° (W) 12,262 ? -13.8°
Maximum altitude 04:56:18 28° 176° (S) 926 ? -8.9°
